{"data":{"norad_id":49436,"intl_designator":"2021-104AE","name":"STARLINK-3049","alt_names":[],"object_type":"PAYLOAD","status":"ACTIVE","operator":null,"country":"US","launch_date":"2021-11-13","launch_site_code":"AFETR","launch_vehicle":null,"mission":null,"orbit_class":"UNKNOWN","rcs_meters":null,"size_class":null,"mass_kg":null,"dimensions":null,"purposes":["comms"],"wikipedia_slug":null,"has_3d_model":false,"image_url":null,"decayed_at":null,"tle_current":{"epoch":"2026-09-19T22:55:45.757344Z","epoch_age_seconds":88303,"freshness":"FRESH","line1":"1 49436U 21104AE  26262.95539071  .00000640  00000+0  29233-4 0  9993","line2":"2 49436  53.1627  52.5626 0000819  89.5064 270.6033 15.35401728268292","mean_motion":15.35401728,"eccentricity":8.19e-5,"inclination_deg":53.1627,"raan_deg":52.5626,"arg_perigee_deg":89.5064,"mean_anomaly_deg":270.6033,"bstar":2.9233e-5,"rev_number":26829,"period_min":93.786529853378,"perigee_km":459.16749123605,"apogee_km":460.28753344317,"semimajor_km":6837.8645123396,"source":"CELESTRAK","updated_at":"2026-09-20T09:00:39.260313Z"}}}